TimeCDT,TemperatureF,Dew PointF,Humidity,Sea Level PressureIn,VisibilityMPH,Wind Direction,Wind SpeedMPH,Gust SpeedMPH,PrecipitationIn,Events,Conditions,WindDirDegrees,DateUTC
12:14 AM,30.2,24.8,80,30.15,10.0,Calm,Calm,-,N/A,,Overcast,0,2012-11-03 05:14:00
12:35 AM,30.2,24.8,80,30.15,10.0,Calm,Calm,-,N/A,,Overcast,0,2012-11-03 05:35:00
12:53 AM,28.4,24.8,86,30.15,10.0,Calm,Calm,-,N/A,,Overcast,0,2012-11-03 05:53:00
1:14 AM,28.4,24.8,86,30.15,10.0,Calm,Calm,-,N/A,,Overcast,0,2012-11-03 06:14:00
1:35 AM,30.2,24.8,80,30.15,10.0,Calm,Calm,-,N/A,,Overcast,0,2012-11-03 06:35:00
1:53 AM,28.4,24.8,86,30.15,10.0,Calm,Calm,-,N/A,,Overcast,0,2012-11-03 06:53:00
2:15 AM,28.4,24.8,86,30.15,10.0,Calm,Calm,-,N/A,,Overcast,0,2012-11-03 07:15:00
2:35 AM,28.4,24.8,86,30.14,10.0,Calm,Calm,-,N/A,,Overcast,0,2012-11-03 07:35:00
2:53 AM,28.4,24.8,86,30.14,10.0,Calm,Calm,-,N/A,,Overcast,0,2012-11-03 07:53:00
3:15 AM,28.4,24.8,86,30.14,10.0,Calm,Calm,-,N/A,,Overcast,0,2012-11-03 08:15:00
3:35 AM,28.4,24.8,86,30.15,10.0,Calm,Calm,-,N/A,,Overcast,0,2012-11-03 08:35:00
3:53 AM,28.4,24.8,86,30.15,10.0,Calm,Calm,-,N/A,,Overcast,0,2012-11-03 08:53:00
4:15 AM,28.4,23.0,80,30.15,10.0,Calm,Calm,-,N/A,,Overcast,0,2012-11-03 09:15:00
4:35 AM,28.4,23.0,80,30.15,10.0,Calm,Calm,-,N/A,,Overcast,0,2012-11-03 09:35:00
4:53 AM,28.4,23.0,80,30.15,10.0,Calm,Calm,-,N/A,,Overcast,0,2012-11-03 09:53:00
5:15 AM,28.4,23.0,80,30.15,10.0,East,3.5,-,N/A,,Overcast,80,2012-11-03 10:15:00
5:35 AM,28.4,23.0,80,30.16,10.0,East,3.5,-,N/A,,Overcast,80,2012-11-03 10:35:00
5:53 AM,30.2,23.0,75,30.16,10.0,East,3.5,-,N/A,,Overcast,90,2012-11-03 10:53:00
6:15 AM,30.2,23.0,75,30.16,10.0,ESE,4.6,-,N/A,,Overcast,110,2012-11-03 11:15:00
6:35 AM,30.2,23.0,75,30.16,10.0,ESE,5.8,-,N/A,,Overcast,110,2012-11-03 11:35:00
6:53 AM,30.2,23.0,75,30.16,10.0,ESE,4.6,-,N/A,,Overcast,120,2012-11-03 11:53:00
7:14 AM,30.2,23.0,75,30.16,10.0,SE,4.6,-,N/A,,Overcast,130,2012-11-03 12:14:00
7:35 AM,30.2,23.0,75,30.16,10.0,SE,4.6,-,N/A,,Overcast,130,2012-11-03 12:35:00
7:53 AM,30.2,23.0,75,30.16,10.0,SE,4.6,-,N/A,,Overcast,140,2012-11-03 12:53:00
8:15 AM,30.2,23.0,75,30.16,10.0,SE,4.6,-,N/A,,Overcast,140,2012-11-03 13:15:00
8:34 AM,30.2,23.0,75,30.17,10.0,SE,4.6,-,N/A,,Overcast,130,2012-11-03 13:34:00
8:53 AM,30.2,23.0,75,30.17,10.0,SSE,4.6,-,N/A,,Overcast,150,2012-11-03 13:53:00
9:15 AM,30.2,21.2,69,30.17,10.0,SE,3.5,-,N/A,,Overcast,140,2012-11-03 14:15:00
9:35 AM,30.2,21.2,69,30.17,10.0,SSE,4.6,-,N/A,,Overcast,150,2012-11-03 14:35:00
9:52 AM,30.2,21.2,69,30.18,10.0,SSE,4.6,-,N/A,,Overcast,160,2012-11-03 14:52:00
10:15 AM,30.2,21.2,69,30.18,10.0,South,4.6,-,N/A,,Overcast,170,2012-11-03 15:15:00
10:35 AM,30.2,21.2,69,30.18,10.0,SSE,4.6,-,N/A,,Overcast,150,2012-11-03 15:35:00
10:52 AM,32.0,23.0,69,30.18,10.0,ESE,4.6,-,N/A,,Overcast,120,2012-11-03 15:52:00
11:14 AM,32.0,23.0,69,30.19,10.0,SE,3.5,-,N/A,,Overcast,140,2012-11-03 16:14:00
11:35 AM,32.0,23.0,69,30.19,10.0,ESE,4.6,-,N/A,,Overcast,110,2012-11-03 16:35:00
11:53 AM,32.0,23.0,69,30.19,10.0,SE,4.6,-,N/A,,Overcast,130,2012-11-03 16:53:00
12:14 PM,33.8,23.0,65,30.19,10.0,SE,4.6,-,N/A,,Overcast,140,2012-11-03 17:14:00
12:35 PM,33.8,23.0,65,30.18,10.0,ESE,4.6,-,N/A,,Overcast,110,2012-11-03 17:35:00
12:53 PM,33.8,23.0,65,30.18,10.0,ESE,5.8,-,N/A,,Overcast,120,2012-11-03 17:53:00
1:15 PM,33.8,23.0,65,30.18,10.0,ESE,5.8,-,N/A,,Overcast,120,2012-11-03 18:15:00
1:34 PM,33.8,23.0,65,30.18,10.0,ESE,6.9,-,N/A,,Overcast,120,2012-11-03 18:34:00
1:53 PM,33.8,23.0,65,30.18,10.0,East,5.8,-,N/A,,Overcast,100,2012-11-03 18:53:00
2:15 PM,33.8,23.0,65,30.17,10.0,SE,4.6,-,N/A,,Overcast,130,2012-11-03 19:15:00
2:34 PM,35.6,23.0,60,30.18,10.0,ESE,5.8,-,N/A,,Overcast,110,2012-11-03 19:34:00
2:53 PM,33.8,23.0,65,30.18,10.0,ESE,4.6,-,N/A,,Overcast,120,2012-11-03 19:53:00
3:15 PM,33.8,23.0,65,30.17,10.0,ESE,4.6,-,N/A,,Overcast,110,2012-11-03 20:15:00
3:34 PM,33.8,23.0,65,30.17,10.0,ESE,6.9,-,N/A,,Overcast,120,2012-11-03 20:34:00
3:53 PM,33.8,23.0,65,30.17,10.0,ESE,4.6,-,N/A,,Overcast,110,2012-11-03 20:53:00
4:15 PM,33.8,23.0,65,30.17,10.0,ESE,5.8,-,N/A,,Overcast,110,2012-11-03 21:15:00
4:35 PM,33.8,23.0,65,30.17,10.0,ESE,5.8,-,N/A,,Overcast,110,2012-11-03 21:35:00
4:53 PM,33.8,24.8,70,30.17,10.0,ESE,4.6,-,N/A,,Overcast,120,2012-11-03 21:53:00
5:15 PM,33.8,24.8,70,30.17,10.0,ESE,4.6,-,N/A,,Overcast,110,2012-11-03 22:15:00
5:35 PM,33.8,24.8,70,30.17,10.0,SE,4.6,-,N/A,,Overcast,130,2012-11-03 22:35:00
5:53 PM,33.8,24.8,70,30.17,10.0,ESE,3.5,-,N/A,,Overcast,120,2012-11-03 22:53:00
6:15 PM,33.8,24.8,70,30.18,10.0,ESE,3.5,-,N/A,,Overcast,110,2012-11-03 23:15:00
6:34 PM,33.8,24.8,70,30.18,10.0,ESE,3.5,-,N/A,,Overcast,120,2012-11-03 23:34:00
6:53 PM,33.8,24.8,70,30.19,10.0,Calm,Calm,-,N/A,,Overcast,0,2012-11-03 23:53:00
7:15 PM,33.8,24.8,70,30.19,10.0,Calm,Calm,-,N/A,,Overcast,0,2012-11-04 00:15:00
7:34 PM,33.8,24.8,70,30.20,10.0,Calm,Calm,-,N/A,,Overcast,0,2012-11-04 00:34:00
7:53 PM,32.0,24.8,75,30.20,10.0,Calm,Calm,-,N/A,,Overcast,0,2012-11-04 00:53:00
8:15 PM,33.8,24.8,70,30.20,10.0,Calm,Calm,-,N/A,,Overcast,0,2012-11-04 01:15:00
8:34 PM,32.0,24.8,75,30.20,10.0,Calm,Calm,-,N/A,,Overcast,0,2012-11-04 01:34:00
8:53 PM,32.0,24.8,75,30.20,10.0,Calm,Calm,-,N/A,,Overcast,0,2012-11-04 01:53:00
9:15 PM,32.0,24.8,75,30.20,10.0,Calm,Calm,-,N/A,,Overcast,0,2012-11-04 02:15:00
9:34 PM,32.0,24.8,75,30.20,10.0,Calm,Calm,-,N/A,,Overcast,0,2012-11-04 02:34:00
9:53 PM,32.0,24.8,75,30.20,10.0,Calm,Calm,-,N/A,,Overcast,0,2012-11-04 02:53:00
10:15 PM,32.0,24.8,75,30.20,10.0,Calm,Calm,-,N/A,,Overcast,0,2012-11-04 03:15:00
10:35 PM,32.0,24.8,75,30.20,10.0,Calm,Calm,-,N/A,,Overcast,0,2012-11-04 03:35:00
10:52 PM,32.0,26.6,80,30.21,10.0,Calm,Calm,-,N/A,,Overcast,0,2012-11-04 03:52:00
11:15 PM,32.0,26.6,80,30.20,10.0,Calm,Calm,-,N/A,,Overcast,0,2012-11-04 04:15:00
11:35 PM,30.2,24.8,80,30.20,10.0,Calm,Calm,-,N/A,,Overcast,0,2012-11-04 04:35:00
11:52 PM,30.2,24.8,80,30.20,10.0,Calm,Calm,-,N/A,,Overcast,0,2012-11-04 04:52:00